Flag for Switzerland Weather past 2 weeks in Köniz, Bern, Switzerland

Now
66 °F

Partly sunny.


Feels Like: 66 °F
Forecast: 45 / 60 °F
Wind: 7 mph from West

Location: Bern / Belp

Current Time: Sep 4, 2015 at 3:26:51 PM

Latest Report: Sep 4, 2015 at 2:50 PM


Visibility: N/A

Pressure: 30.01 "Hg (28.04 "Hg at 579m altitude)

Humidity: 46%

Dew point: 45 °F

Location of KönizLocation

Historic Weather in Köniz — Graph

°F

Köniz temperature yesterday

Maximum temperature yesterday: 68 °F (at 4:20 PM)
Minimum temperature yesterday: 52 °F (at 3:20 AM)
Average temperature yesterday: 60 °F

Past Weeks' High & Low Weather Summary

 TemperatureHumidityPressure
High90 °F (Aug 29, 6:20 PM)100% (Aug 20, 10:20 PM)30.27 "Hg (Aug 20, 10:20 PM)
Low48 °F (Aug 22, 5:50 AM)31% (Aug 31, 4:20 PM)29.74 "Hg (Aug 24, 4:20 AM)
Average65 °F79%30.04 "Hg
* Reported Aug 20 2:20 PM — Sep 4 2:20 PM, Köniz, Weather by CustomWeather, © 2015

Note: Actual official high and low records may vary slightly from our data, if they occured in-between our weather recording intervals... More about our weather records

Advertising

Köniz weather history for previous 24 hours

 ConditionsComfort  
Time TempWeatherWind HumidityBarometerVisibility
2:20 PM
Fri, Sep 4
66 °FScattered clouds.5 mph46%30.01 "HgN/A
1:50 PM68 °FScattered clouds.6 mph49%30.01 "HgN/A
1:20 PM66 °FScattered clouds.3 mph49%30.01 "HgN/A
12:50 PM64 °FScattered clouds.5 mph52%30.01 "HgN/A
12:20 PM66 °FScattered clouds.5 mph60%30.04 "HgN/A
11:50 AM63 °FPartly sunny.3 mph64%30.04 "HgN/A
11:20 AM63 °FScattered clouds.2 mph73%30.04 "HgN/A
10:50 AM63 °FScattered clouds.3 mph68%30.04 "HgN/A
10:20 AM61 °FPassing clouds.3 mph83%30.04 "HgN/A
9:50 AM59 °FPassing clouds.3 mph88%30.04 "HgN/A
9:20 AM57 °FPassing clouds.5 mph88%30.04 "HgN/A
8:50 AM54 °FPassing clouds.5 mph100%30.04 "HgN/A
8:20 AM52 °FPassing clouds.5 mph100%30.04 "HgN/A
7:50 AM50 °FSnow. Light fog.6 mph100%30.04 "HgN/A
7:20 AM48 °FSnow. Overcast.6 mph100%30.04 "Hg6 mi
6:50 AM48 °FFog.5 mph100%30.04 "HgN/A
6:20 AM48 °FPassing clouds.2 mph100%30.04 "HgN/A
5:50 AM48 °FClear.5 mph100%30.04 "Hg10 mi
5:20 AM50 °FClear.2 mph100%30.04 "Hg10 mi
4:50 AM50 °FClear.5 mph100%30.04 "Hg10 mi
4:20 AM50 °FCool.5 mph100%30.04 "HgN/A
3:50 AM52 °FPassing clouds.5 mph100%30.04 "HgN/A
3:20 AM54 °FPassing clouds.3 mph100%30.04 "HgN/A
2:50 AM54 °FPartly cloudy.6 mph100%30.04 "HgN/A
2:20 AM55 °FPassing clouds.5 mph94%30.04 "HgN/A
1:50 AM55 °FPassing clouds.7 mph94%30.04 "HgN/A
1:20 AM55 °FMostly cloudy.5 mph100%30.04 "HgN/A
12:50 AM55 °FPassing clouds.7 mph100%30.04 "HgN/A
12:20 AM57 °FLight rain. Overcast.8 mph94%30.04 "HgN/A
11:20 PM
Thu, Sep 3
57 °FPassing clouds.1 mph100%30.01 "HgN/A
10:50 PM57 °FPassing clouds.2 mph94%30.01 "HgN/A
10:20 PM57 °FPassing clouds.2 mph94%30.01 "HgN/A
9:50 PM57 °FPassing clouds.6 mph100%30.01 "HgN/A
9:20 PM57 °FPartly cloudy.3 mph100%30.01 "HgN/A
8:50 PM57 °FPartly sunny.5 mph94%30.01 "HgN/A
8:20 PM59 °FSprinkles. Partly sunny.6 mph88%30.01 "HgN/A
7:50 PM61 °FPartly sunny.2 mph83%29.98 "HgN/A
7:20 PM63 °FPartly sunny.3 mph68%29.98 "HgN/A
6:50 PM66 °FPartly sunny.5 mph56%29.98 "HgN/A
6:20 PM66 °FPartly sunny.3 mph56%29.98 "HgN/A
5:50 PM66 °FPartly sunny.6 mph52%29.98 "HgN/A
5:20 PM66 °FPartly sunny.6 mph52%29.98 "HgN/A
4:50 PM66 °FPartly sunny.8 mph56%29.98 "HgN/A
4:20 PM68 °FPartly sunny.7 mph53%29.98 "HgN/A
3:50 PM66 °FPartly sunny.3 mph52%29.98 "HgN/A
3:20 PM66 °FPartly sunny.6 mph52%29.98 "HgN/A
Weather by CustomWeather, © 2015

See weather overviewHow to use our weather pages